Dinard-Pleurtuit-Saint-Malo Airport

Jump to: basic info | weather | frequencies | runways | comments

Related pages: nearby airports | nearby navaids | notams | map

Basic information (top)

Codes: DNR LFRD
Location: lon 48.587700, lat -2.079960, elev 219 ft / 67 m msl
Status: medium_airport
Scheduled airline service: yes
Links: Wikipedia Mobile

Weather (top)

Current conditions (rec'd 2014/11/23 01:30Z):

LFRD 230130Z AUTO 11002KT 1200 R35/P2000 BR OVC004 13/12 Q1014

Airport forecast (rec'd 2014/11/22 00:14Z):

TAF LFRD 222300Z 2300/2324 VRB03KT 4000 BR BKN005 
      TEMPO 2300/2306 2000 BR BKN003 
      BECMG 2302/2304 01010KT 
      BECMG 2306/2308 5000 RA BKN015 
      TEMPO 2308/2322 02015G25KT 3000 RA 
      TEMPO 2308/2324 BKN005 
      BECMG 2320/2322 9999 NSW

Frequencies (top)

Verify before use: may be inaccurate or out of date.

ATIS: 124.575 MHz (DINARD ATIS)
TWR: 120.15 MHz (DINARD TWR)

Runways (top)

12/30: 4,708 x 148 ft (1,435 x 45 m) — paved — not lighted — threshold 30 displaced 476 ft (145 m)

17/35: 7,218 x 148 ft (2,200 x 45 m) — paved — lighted

Latest comments (top)

No comments yet for Dinard-Pleurtuit-Saint-Malo Airport

More... (top)

See also NOTAMs and nearby airports and navaids, or visit the Dinard-Pleurtuit-Saint-Malo Airport page at the main OurAirports website..